Birmingham, AL

3:14 PM CST on December 14, 2019 (GMT -0600)
Birmingham International

Weather History for KBHM - November, 2019

Change the Weather History Date:

Friday, November 22, 2019

  Actual Average Record
Temperature  
Mean Temperature 59 °F 52 °F  
Max Temperature 68 °F 63 °F 79 °F (1900)
Min Temperature 50 °F 42 °F 20 °F (1964)
Degree Days  
Heating Degree Days 6 13  
Month to date heating degree days 340 217  
Since 1 July heating degree days 428 344  
Growing Degree Days 9 (Base 50)    
Moisture  
Dew Point 57 °F    
Average Humidity 83    
Maximum Humidity 100    
Minimum Humidity 61    
Precipitation  
Precipitation 0.26 in 0.18 in 2.07 in (2004)
Month to date precipitation 1.04 3.42  
Year to date precipitation 45.95 47.84  
Snow  
Snow 0.00 in 0.00 in - ()
Month to date snowfall 0.0 0.0  
Since 1 July snowfall 0.0 0.0  
Since 1 September snowfall 0.0 0.0  
Snow Depth 0.00 in    
Sea Level Pressure  
Sea Level Pressure 30.04 in    
Wind  
Wind Speed 6 mph ()    
Max Wind Speed 14 mph    
Max Gust Speed 18 mph    
Visibility 8.0 miles    
Events Rain    
T = Trace of Precipitation, MM = Missing Value Source: Averaged Metar Reports

Daily Weather History Graph

Daily Weather History Graph

Search for Another Location

Airport or City:

Astronomy

Nov. 22, 2019 Rise Set
Actual Time 6:24 AM CST 4:40 PM CST
Civil Twilight 5:58 AM CST 5:07 PM CST
Nautical Twilight 5:27 AM CST 5:38 PM CST
Astronomical Twilight 4:58 AM CST 6:07 PM CST
Moon 1:48 AM CST (11/22) 2:25 PM CST (11/22)
Length of Visible Light 11h 09m
Length of Day
10h 16m
Waning Crescent, 19% of the Moon is Illuminated
Nov 22
Waning Crescent
Nov 26
New
Dec 4
First Quarter
Dec 11
Full
Dec 18
Last Quarter

Hourly Weather History & Observations

Time (CST) Temp. Dew Point Humidity Pressure Visibility Wind Dir Wind Speed Gust Speed Precip Events Conditions
12:53 AM 55.0 °F 43.0 °F 64% 30.12 in 10.0 mi South 4.6 mph - N/A   Scattered Clouds
1:53 AM 55.9 °F 45.0 °F 67% 30.11 in 10.0 mi SSE 3.5 mph - N/A   Mostly Cloudy
2:53 AM 57.9 °F 51.1 °F 78% 30.09 in 10.0 mi SSW 8.1 mph - N/A   Overcast
3:53 AM 59.0 °F 53.1 °F 81% 30.09 in 10.0 mi SSW 10.4 mph - N/A   Overcast
4:08 AM 59.0 °F 53.1 °F 81% 30.09 in 10.0 mi SW 9.2 mph - N/A   Mostly Cloudy
4:35 AM 59.0 °F 53.1 °F 81% 30.10 in 10.0 mi SSW 9.2 mph - N/A   Scattered Clouds
4:53 AM 59.0 °F 53.1 °F 81% 30.09 in 10.0 mi South 8.1 mph - N/A   Mostly Cloudy
5:53 AM 59.0 °F 53.1 °F 81% 30.09 in 10.0 mi South 6.9 mph - 0.00 in   Mostly Cloudy
6:53 AM 57.9 °F 53.1 °F 84% 30.10 in 10.0 mi SSW 5.8 mph - N/A   Mostly Cloudy
7:53 AM 61.0 °F 54.0 °F 78% 30.09 in 10.0 mi South 8.1 mph - N/A   Mostly Cloudy
8:53 AM 64.0 °F 55.0 °F 73% 30.10 in 10.0 mi SSW 9.2 mph - N/A   Mostly Cloudy
9:53 AM 66.9 °F 55.9 °F 68% 30.09 in 10.0 mi SSW 11.5 mph - N/A   Mostly Cloudy
10:20 AM 66.0 °F 55.9 °F 70% 30.09 in 10.0 mi SSW 13.8 mph - N/A   Overcast
10:53 AM 66.9 °F 57.0 °F 70% 30.06 in 10.0 mi SSW 10.4 mph - N/A   Overcast
11:01 AM 66.9 °F 57.0 °F 70% 30.07 in 10.0 mi SSW 12.7 mph - N/A   Overcast
11:53 AM 66.9 °F 57.0 °F 70% 30.03 in 10.0 mi South 8.1 mph - N/A   Overcast
12:45 PM 68.0 °F 57.9 °F 70% 30.03 in 10.0 mi SW 9.2 mph - N/A   Overcast
12:53 PM 66.9 °F 59.0 °F 76% 30.02 in 6.0 mi WSW 10.4 mph - 0.00 in Rain Light Rain
1:04 PM 64.9 °F 60.1 °F 84% 30.03 in 2.5 mi West 8.1 mph - 0.00 in Rain Light Rain
1:17 PM 64.9 °F 61.0 °F 87% 30.03 in 3.0 mi West 3.5 mph - 0.01 in Rain Rain
1:53 PM 64.0 °F 61.0 °F 90% 30.01 in 2.0 mi Calm Calm - 0.03 in Rain Rain
2:53 PM 63.0 °F 62.1 °F 97% 30.00 in 3.0 mi Calm Calm - 0.19 in Rain Light Rain
3:53 PM 64.0 °F 62.1 °F 93% 30.01 in 4.0 mi South 4.6 mph - 0.03 in Rain Light Rain
4:53 PM 64.0 °F 62.1 °F 93% 30.01 in 8.0 mi SSW 5.8 mph - 0.01 in   Overcast
5:10 PM 64.0 °F 62.1 °F 93% 30.02 in 3.0 mi SSW 4.6 mph - 0.00 in Rain Light Rain
5:17 PM 64.0 °F 62.1 °F 93% 30.02 in 6.0 mi SSW 6.9 mph - 0.00 in   Overcast
5:53 PM 64.0 °F 62.1 °F 93% 30.01 in 10.0 mi South 3.5 mph - 0.00 in   Overcast
7:53 PM 64.0 °F 62.1 °F 93% 30.01 in 10.0 mi Calm Calm - N/A   Overcast
8:53 PM 63.0 °F 61.0 °F 93% 29.99 in 4.0 mi Calm Calm - N/A   Overcast
9:11 PM 63.0 °F 61.0 °F 93% 30.00 in 6.0 mi Calm Calm - N/A   Overcast
9:53 PM 62.1 °F 61.0 °F 96% 29.97 in 4.0 mi East 3.5 mph - N/A   Overcast
10:51 PM 64.4 °F 60.8 °F 88% 29.98 in 9.0 mi Calm Calm - N/A   Overcast
10:53 PM 64.0 °F 61.0 °F 90% 29.96 in 9.0 mi Calm Calm - N/A   Overcast
11:18 PM 64.9 °F 61.0 °F 87% 29.97 in 10.0 mi Calm Calm - N/A   Overcast
11:53 PM 64.0 °F 61.0 °F 90% 29.95 in 10.0 mi South 8.1 mph - N/A   Overcast